EN

Hourly Weather Godziszow

Today, 16 May, Sunday

Time Temperature Precipitation Wind Pressure Humidity
00:00 +10°C° 0 mm 2 mps 725 mmHg 90%
01:00 +10°C° 0 mm 2 mps 725 mmHg 90%
02:00 +10°C° 0.2 mm 2 mps 724 mmHg 91%
03:00 +10°C° 0.2 mm 2 mps 724 mmHg 92%
04:00 +10°C° 0.2 mm 2 mps 724 mmHg 93%
05:00 +10°C° 0.2 mm 2 mps 724 mmHg 92%
06:00 +12°C° 0.2 mm 2 mps 724 mmHg 90%
07:00 +13°C° 0.2 mm 2 mps 725 mmHg 88%
08:00 +13°C° 0.4 mm 2 mps 725 mmHg 88%
09:00 +13°C° 0.4 mm 2 mps 725 mmHg 87%
10:00 +13°C° 0.4 mm 3 mps 725 mmHg 86%
11:00 +13°C° 0.3 mm 3 mps 725 mmHg 82%
12:00 +14°C° 0.3 mm 3 mps 725 mmHg 78%
13:00 +14°C° 0.3 mm 3 mps 725 mmHg 74%
14:00 +16°C° 0.3 mm 3 mps 725 mmHg 73%
15:00 +16°C° 0.3 mm 3 mps 725 mmHg 72%
16:00 +16°C° 0.3 mm 2 mps 725 mmHg 71%
17:00 +15°C° 0.1 mm 2 mps 725 mmHg 75%
18:00 +14°C° 0.1 mm 2 mps 725 mmHg 80%
19:00 +12°C° 0.1 mm 2 mps 725 mmHg 84%
20:00 +12°C° 0 mm 2 mps 725 mmHg 86%
21:00 +10°C° 0 mm 2 mps 725 mmHg 88%
22:00 +9°C° 0 mm 2 mps 725 mmHg 90%
23:00 +9°C° 0 mm 2 mps 725 mmHg 90%

Tomorrow, 17 May, Monday

Time Temperature Precipitation Wind Pressure Humidity
00:00 +9°C° 0 mm 2 mps 725 mmHg 90%
01:00 +9°C° 0 mm 2 mps 725 mmHg 90%
02:00 +9°C° 0 mm 2 mps 724 mmHg 90%
03:00 +10°C° 0 mm 1 mps 724 mmHg 90%
04:00 +10°C° 0 mm 1 mps 724 mmHg 90%
05:00 +10°C° 0.4 mm 1 mps 724 mmHg 89%
06:00 +11°C° 0.4 mm 1 mps 724 mmHg 88%
07:00 +11°C° 0.4 mm 0 mps 724 mmHg 88%
08:00 +12°C° 1.1 mm 1 mps 724 mmHg 89%
09:00 +12°C° 1.1 mm 1 mps 724 mmHg 91%
10:00 +12°C° 1.1 mm 1 mps 724 mmHg 92%
11:00 +12°C° 1.6 mm 1 mps 724 mmHg 94%
12:00 +12°C° 1.6 mm 1 mps 723 mmHg 95%
13:00 +12°C° 1.6 mm 1 mps 723 mmHg 96%
14:00 +11°C° 1.7 mm 1 mps 724 mmHg 96%
15:00 +10°C° 1.7 mm 2 mps 724 mmHg 96%
16:00 +10°C° 1.7 mm 2 mps 724 mmHg 96%
17:00 +10°C° 0.4 mm 2 mps 724 mmHg 96%
18:00 +9°C° 0.4 mm 2 mps 724 mmHg 96%
19:00 +9°C° 0.4 mm 2 mps 725 mmHg 96%
20:00 +9°C° 0.4 mm 2 mps 725 mmHg 96%
21:00 +9°C° 0.4 mm 2 mps 725 mmHg 97%
22:00 +9°C° 0.4 mm 2 mps 725 mmHg 97%
23:00 +9°C° 0.8 mm 2 mps 725 mmHg 97%

Day after tomorrow, 18 May, Tuesday

Time Temperature Precipitation Wind Pressure Humidity
00:00 +9°C° 0.8 mm 3 mps 726 mmHg 96%
01:00 +9°C° 0.8 mm 3 mps 726 mmHg 96%
02:00 +9°C° 0.1 mm 3 mps 726 mmHg 95%
03:00 +8°C° 0.1 mm 3 mps 726 mmHg 94%
04:00 +8°C° 0.1 mm 3 mps 727 mmHg 94%
05:00 +8°C° 0 mm 3 mps 727 mmHg 92%
06:00 +9°C° 0 mm 3 mps 727 mmHg 89%
07:00 +9°C° 0 mm 3 mps 728 mmHg 87%
08:00 +10°C° 0.2 mm 4 mps 728 mmHg 85%
09:00 +10°C° 0.2 mm 4 mps 728 mmHg 83%
10:00 +11°C° 0.2 mm 4 mps 728 mmHg 81%
11:00 +12°C° 0.3 mm 5 mps 728 mmHg 77%
12:00 +13°C° 0.3 mm 5 mps 728 mmHg 73%
13:00 +14°C° 0.3 mm 5 mps 728 mmHg 69%
14:00 +13°C° 0.3 mm 5 mps 728 mmHg 71%
15:00 +13°C° 0.3 mm 4 mps 728 mmHg 74%
16:00 +13°C° 0.3 mm 4 mps 728 mmHg 76%
17:00 +12°C° 0.2 mm 3 mps 728 mmHg 80%
18:00 +12°C° 0.2 mm 2 mps 728 mmHg 84%
19:00 +10°C° 0.2 mm 2 mps 728 mmHg 88%
20:00 +9°C° 0.2 mm 2 mps 729 mmHg 90%
21:00 +9°C° 0.2 mm 2 mps 729 mmHg 92%
22:00 +9°C° 0.2 mm 1 mps 729 mmHg 93%
23:00 +9°C° 0.1 mm 1 mps 730 mmHg 94%

19 May, Wednesday

Time Temperature Precipitation Wind Pressure Humidity
00:00 +8°C° 0.1 mm 2 mps 730 mmHg 95%
01:00 +8°C° 0.1 mm 2 mps 730 mmHg 95%
02:00 +9°C° 0 mm 1 mps 730 mmHg 95%
03:00 +8°C° 0 mm 1 mps 730 mmHg 95%
04:00 +8°C° 0 mm 1 mps 730 mmHg 95%
05:00 +9°C° 0.1 mm 1 mps 730 mmHg 94%
06:00 +9°C° 0.1 mm 1 mps 731 mmHg 93%
07:00 +10°C° 0.1 mm 1 mps 731 mmHg 92%
08:00 +10°C° 0.1 mm 1 mps 731 mmHg 89%
09:00 +11°C° 0.1 mm 1 mps 731 mmHg 86%
10:00 +11°C° 0.1 mm 1 mps 731 mmHg 83%
11:00 +12°C° 0.4 mm 2 mps 731 mmHg 80%
12:00 +13°C° 0.4 mm 2 mps 730 mmHg 77%
13:00 +12°C° 0.4 mm 3 mps 730 mmHg 74%
14:00 +12°C° 0.3 mm 3 mps 730 mmHg 77%
15:00 +11°C° 0.3 mm 3 mps 730 mmHg 81%
16:00 +10°C° 0.3 mm 3 mps 730 mmHg 84%
17:00 +10°C° 0.1 mm 3 mps 731 mmHg 86%
18:00 +9°C° 0.1 mm 2 mps 731 mmHg 89%
19:00 +8°C° 0.1 mm 2 mps 731 mmHg 91%
20:00 +8°C° 0 mm 2 mps 731 mmHg 92%
21:00 +8°C° 0 mm 2 mps 731 mmHg 93%
22:00 +8°C° 0 mm 1 mps 731 mmHg 94%
23:00 +8°C° 0.1 mm 1 mps 731 mmHg 94%

20 May, Thursday

Time Temperature Precipitation Wind Pressure Humidity
00:00 +7°C° 0.1 mm 2 mps 731 mmHg 94%
01:00 +7°C° 0.1 mm 2 mps 731 mmHg 94%
02:00 +7°C° 0.1 mm 2 mps 731 mmHg 95%
03:00 +7°C° 0.1 mm 2 mps 731 mmHg 95%
04:00 +6°C° 0.1 mm 2 mps 731 mmHg 96%
05:00 +7°C° 0.1 mm 2 mps 731 mmHg 94%
06:00 +8°C° 0.1 mm 2 mps 732 mmHg 92%
07:00 +8°C° 0.1 mm 2 mps 732 mmHg 90%
08:00 +9°C° 0.3 mm 3 mps 732 mmHg 86%
09:00 +10°C° 0.3 mm 3 mps 732 mmHg 83%
10:00 +11°C° 0.3 mm 4 mps 732 mmHg 79%
11:00 +11°C° 0.5 mm 4 mps 732 mmHg 77%
12:00 +12°C° 0.5 mm 4 mps 732 mmHg 76%
13:00 +12°C° 0.5 mm 4 mps 732 mmHg 74%
14:00 +12°C° 0.5 mm 4 mps 732 mmHg 76%
15:00 +12°C° 0.5 mm 4 mps 732 mmHg 79%
16:00 +12°C° 0.5 mm 4 mps 732 mmHg 81%
17:00 +11°C° 0.4 mm 3 mps 732 mmHg 84%
18:00 +10°C° 0.4 mm 3 mps 733 mmHg 87%
19:00 +9°C° 0.4 mm 2 mps 733 mmHg 90%
20:00 +8°C° 0.1 mm 2 mps 733 mmHg 91%
21:00 +7°C° 0.1 mm 2 mps 733 mmHg 92%
22:00 +7°C° 0.1 mm 1 mps 734 mmHg 93%
23:00 +7°C° 0 mm 1 mps 734 mmHg 93%

21 May, Friday

Time Temperature Precipitation Wind Pressure Humidity
00:00 +6°C° 0 mm 2 mps 734 mmHg 93%
01:00 +6°C° 0 mm 2 mps 734 mmHg 92%
02:00 +5°C° 0 mm 2 mps 733 mmHg 92%
03:00 +5°C° 0 mm 2 mps 733 mmHg 92%
04:00 +5°C° 0 mm 2 mps 733 mmHg 92%
05:00 +7°C° 0 mm 2 mps 733 mmHg 88%
06:00 +8°C° 0 mm 2 mps 733 mmHg 84%
07:00 +10°C° 0 mm 2 mps 733 mmHg 79%
08:00 +13°C° 0 mm 2 mps 733 mmHg 71%
09:00 +14°C° 0 mm 2 mps 733 mmHg 63%
10:00 +16°C° 0 mm 3 mps 733 mmHg 55%
11:00 +17°C° 0 mm 3 mps 732 mmHg 52%
12:00 +17°C° 0 mm 4 mps 732 mmHg 49%
13:00 +18°C° 0 mm 4 mps 732 mmHg 47%
14:00 +18°C° 0 mm 4 mps 731 mmHg 49%
15:00 +18°C° 0 mm 4 mps 731 mmHg 51%
16:00 +18°C° 0 mm 4 mps 730 mmHg 52%
17:00 +16°C° 0 mm 3 mps 730 mmHg 59%
18:00 +14°C° 0 mm 3 mps 730 mmHg 65%
19:00 +13°C° 0 mm 2 mps 729 mmHg 71%
20:00 +13°C° 0 mm 2 mps 729 mmHg 73%
21:00 +12°C° 0 mm 2 mps 729 mmHg 75%
22:00 +10°C° 0 mm 2 mps 729 mmHg 77%
23:00 +10°C° 0 mm 2 mps 728 mmHg 78%
Show more